| time (UTC) | temp F | wind direction | speed MPH | gust MPH | rain 1hr in | rain 24hr in | rain mn in | humidity % | barometer mb |
| 20260904225424 | 52 | 292 | 0.0 | 2.0 | 0.00 | 0.25 | 0.00 | 99 | 992.0 |
| 20260904224505 | 52 | 292 | 0.0 | 2.0 | 0.00 | 0.25 | 0.00 | 99 | 992.3 |
| 20260904223605 | 52 | 292 | 1.0 | 2.0 | 0.01 | 0.25 | 0.00 | 99 | 992.1 |
| 20260904222703 | 51 | 292 | 0.0 | 2.0 | 0.01 | 0.25 | 0.00 | 99 | 992.3 |
| 20260904221824 | 51 | 0 | 0.0 | 0.0 | 0.01 | 0.25 | 0.00 | 99 | 992.2 |
| 20260904220927 | 51 | 0 | 0.0 | 0.0 | 0.01 | 0.25 | 0.00 | 99 | 992.2 |
| 20260904220003 | 52 | 0 | 0.0 | 0.0 | 0.01 | 0.25 | 0.00 | 99 | 992.3 |
| 20260904215405 | 51 | 0 | 0.0 | 0.0 | 0.01 | 0.25 | 0.25 | 99 | 992.3 |
| 20260904214503 | 52 | 292 | 0.0 | 2.0 | 0.02 | 0.25 | 0.25 | 99 | 992.2 |
| 20260904213605 | 52 | 292 | 1.0 | 2.0 | 0.01 | 0.24 | 0.24 | 99 | 992.1 |
| 20260904212703 | 52 | 292 | 0.0 | 2.0 | 0.01 | 0.24 | 0.24 | 99 | 992.4 |
| 20260904211803 | 52 | 292 | 1.0 | 2.0 | 0.01 | 0.24 | 0.24 | 99 | 992.3 |
| 20260904210924 | 52 | 292 | 0.0 | 2.0 | 0.02 | 0.24 | 0.24 | 99 | 992.1 |
| 20260904210003 | 52 | 292 | 1.0 | 2.0 | 0.02 | 0.24 | 0.24 | 99 | 992.3 |
| 20260904205424 | 52 | 292 | 0.0 | 2.0 | 0.04 | 0.24 | 0.24 | 99 | 992.3 |
| 20260904204503 | 52 | 292 | 0.0 | 2.0 | 0.04 | 0.22 | 0.22 | 98 | 992.4 |
| 20260904203603 | 52 | 292 | 1.0 | 2.0 | 0.04 | 0.22 | 0.22 | 99 | 992.4 |
| 20260904202705 | 52 | 292 | 1.0 | 2.0 | 0.04 | 0.22 | 0.22 | 99 | 992.3 |
| 20260904201805 | 52 | 292 | 0.0 | 2.0 | 0.05 | 0.22 | 0.22 | 99 | 992.2 |
| 20260904200903 | 52 | 292 | 1.0 | 2.0 | 0.05 | 0.21 | 0.21 | 99 | 992.2 |
| 20260904200003 | 52 | 292 | 0.0 | 2.0 | 0.06 | 0.21 | 0.21 | 99 | 992.4 |
| 20260904195403 | 53 | 292 | 1.0 | 2.0 | 0.06 | 0.20 | 0.20 | 99 | 992.4 |
| 20260904194503 | 52 | 292 | 0.0 | 2.0 | 0.07 | 0.19 | 0.19 | 98 | 992.6 |
| 20260904193603 | 52 | 292 | 0.0 | 2.0 | 0.09 | 0.19 | 0.19 | 98 | 992.8 |
| 20260904192703 | 52 | 292 | 1.0 | 4.0 | 0.12 | 0.19 | 0.19 | 97 | 992.3 |
| 20260904191803 | 52 | 292 | 1.0 | 2.0 | 0.11 | 0.18 | 0.18 | 97 | 992.4 |
| 20260904190903 | 53 | 292 | 1.0 | 2.0 | 0.09 | 0.17 | 0.17 | 96 | 992.7 |
| 20260904190003 | 53 | 292 | 1.0 | 2.0 | 0.08 | 0.15 | 0.15 | 96 | 992.7 |
| 20260904185405 | 53 | 292 | 0.0 | 2.0 | 0.07 | 0.14 | 0.14 | 95 | 992.8 |
| 20260904184526 | 53 | 292 | 0.0 | 2.0 | 0.05 | 0.12 | 0.13 | 95 | 992.7 |
| 20260904183626 | 54 | 292 | 0.0 | 2.0 | 0.02 | 0.09 | 0.09 | 94 | 992.7 |
| 20260904182705 | 54 | 279 | 0.0 | 2.0 | 0.00 | 0.07 | 0.07 | 92 | 992.8 |
| 20260904181803 | 54 | 234 | 1.0 | 2.0 | 0.00 | 0.07 | 0.07 | 91 | 992.7 |
| 20260904180903 | 54 | 255 | 1.0 | 4.0 | 0.00 | 0.07 | 0.07 | 89 | 992.6 |
| 20260904180003 | 54 | 236 | 1.0 | 6.0 | 0.00 | 0.07 | 0.07 | 88 | 992.4 |
| 20260904175405 | 54 | 240 | 2.0 | 8.0 | 0.00 | 0.07 | 0.07 | 87 | 992.3 |
| 20260904174505 | 54 | 251 | 5.0 | 11.0 | 0.00 | 0.07 | 0.07 | 87 | 992.4 |
| 20260904173606 | 54 | 233 | 6.0 | 11.0 | 0.00 | 0.07 | 0.07 | 87 | 992.3 |
| 20260904172703 | 54 | 234 | 8.0 | 11.0 | 0.00 | 0.07 | 0.07 | 87 | 992.6 |
| 20260904171824 | 55 | 247 | 5.0 | 9.0 | 0.00 | 0.07 | 0.07 | 88 | 992.6 |
| 20260904170903 | 55 | 238 | 4.0 | 13.0 | 0.01 | 0.07 | 0.07 | 88 | 992.3 |
| 20260904170026 | 56 | 239 | 8.0 | 11.0 | 0.01 | 0.07 | 0.07 | 84 | 992.4 |
| 20260904165405 | 56 | 233 | 5.0 | 9.0 | 0.01 | 0.07 | 0.07 | 82 | 992.4 |
| 20260904164526 | 56 | 241 | 3.0 | 8.0 | 0.04 | 0.07 | 0.07 | 82 | 992.6 |
| 20260904163603 | 56 | 248 | 3.0 | 6.0 | 0.07 | 0.07 | 0.07 | 85 | 992.2 |
| 20260904162703 | 56 | 284 | 2.0 | 4.0 | 0.07 | 0.07 | 0.07 | 85 | 992.0 |
| 20260904161803 | 57 | 316 | 2.0 | 6.0 | 0.07 | 0.07 | 0.07 | 81 | 992.1 |
| 20260904160903 | 57 | 321 | 3.0 | 7.0 | 0.06 | 0.06 | 0.06 | 82 | 992.1 |
| 20260904160003 | 58 | 321 | 3.0 | 6.0 | 0.06 | 0.06 | 0.06 | 80 | 992.2 |
| 20260904155424 | 58 | 323 | 4.0 | 4.0 | 0.06 | 0.06 | 0.06 | 79 | 992.3 |
| 20260904154503 | 60 | 81 | 1.0 | 2.0 | 0.04 | 0.04 | 0.04 | 76 | 992.3 |
| 20260904153605 | 61 | 90 | 1.0 | 2.0 | 0.00 | 0.00 | 0.00 | 66 | 992.5 |
| 20260904152703 | 61 | 90 | 0.0 | 2.0 | 0.00 | 0.00 | 0.00 | 69 | 992.4 |
| 20260904151804 | 61 | 90 | 0.0 | 2.0 | 0.00 | 0.00 | 0.00 | 67 | 992.5 |
| 20260904150903 | 62 | 0 | 0.0 | 0.0 | 0.00 | 0.00 | 0.00 | 70 | 992.6 |
| 20260904150005 | 62 | 90 | 0.0 | 2.0 | 0.00 | 0.00 | 0.00 | 68 | 992.6 |
| 20260904145424 | 62 | 90 | 0.0 | 2.0 | 0.00 | 0.00 | 0.00 | 68 | 992.7 |
| 20260904144503 | 62 | 90 | 2.0 | 4.0 | 0.00 | 0.00 | 0.00 | 63 | 992.7 |
| 20260904143603 | 63 | 75 | 2.0 | 4.0 | 0.00 | 0.00 | 0.00 | 60 | 992.4 |
| 20260904142703 | 64 | 74 | 2.0 | 6.0 | 0.00 | 0.00 | 0.00 | 58 | 992.7 |
| 20260904141803 | 65 | 46 | 2.0 | 6.0 | 0.00 | 0.00 | 0.00 | 56 | 992.8 |
| 20260904140903 | 65 | 79 | 2.0 | 6.0 | 0.00 | 0.00 | 0.00 | 56 | 992.6 |
| 20260904140004 | 65 | 61 | 3.0 | 6.0 | 0.00 | 0.00 | 0.00 | 55 | 992.8 |
| 20260904135406 | 65 | 67 | 2.0 | 4.0 | 0.00 | 0.00 | 0.00 | 56 | 992.9 |
| 20260904134503 | 65 | 40 | 2.0 | 7.0 | 0.00 | 0.00 | 0.00 | 56 | 992.9 |
| 20260904133603 | 65 | 59 | 2.0 | 4.0 | 0.00 | 0.00 | 0.00 | 55 | 993.1 |
| 20260904132705 | 65 | 90 | 2.0 | 8.0 | 0.00 | 0.00 | 0.00 | 55 | 993.2 |
| 20260904131805 | 65 | 81 | 2.0 | 4.0 | 0.00 | 0.00 | 0.00 | 57 | 993.2 |
| 20260904130904 | 66 | 90 | 1.0 | 4.0 | 0.00 | 0.00 | 0.00 | 53 | 993.4 |
| 20260904130003 | 65 | 93 | 2.0 | 4.0 | 0.00 | 0.00 | 0.00 | 54 | 993.4 |
| 20260904125405 | 65 | 102 | 2.0 | 4.0 | 0.00 | 0.00 | 0.00 | 54 | 993.6 |
| 20260904124524 | 65 | 108 | 2.0 | 4.0 | 0.00 | 0.00 | 0.00 | 54 | 993.6 |
| 20260904123625 | 65 | 117 | 1.0 | 4.0 | 0.00 | 0.00 | 0.00 | 55 | 993.6 |
| 20260904122725 | 64 | 108 | 2.0 | 9.0 | 0.00 | 0.00 | 0.00 | 56 | 993.7 |
| 20260904121803 | 64 | 95 | 4.0 | 8.0 | 0.00 | 0.00 | 0.00 | 55 | 994.0 |
| 20260904120903 | 65 | 94 | 2.0 | 8.0 | 0.00 | 0.00 | 0.00 | 55 | 993.9 |
| 20260904120005 | 65 | 114 | 5.0 | 7.0 | 0.00 | 0.00 | 0.00 | 54 | 993.7 |
| 20260904115403 | 65 | 115 | 3.0 | 7.0 | 0.00 | 0.00 | 0.00 | 55 | 994.0 |
| 20260904114503 | 65 | 88 | 2.0 | 6.0 | 0.00 | 0.00 | 0.00 | 53 | 994.0 |
| 20260904113603 | 66 | 95 | 2.0 | 4.0 | 0.00 | 0.00 | 0.00 | 53 | 994.2 |
| 20260904112703 | 66 | 107 | 0.0 | 4.0 | 0.00 | 0.00 | 0.00 | 53 | 994.3 |
| 20260904111803 | 64 | 90 | 2.0 | 6.0 | 0.00 | 0.00 | 0.00 | 54 | 994.4 |
| 20260904110903 | 65 | 90 | 1.0 | 6.0 | 0.00 | 0.00 | 0.00 | 52 | 994.4 |
| 20260904110003 | 66 | 95 | 2.0 | 4.0 | 0.00 | 0.00 | 0.00 | 53 | 994.5 |
| 20260904105403 | 65 | 97 | 1.0 | 4.0 | 0.00 | 0.00 | 0.00 | 52 | 994.4 |
| 20260904104506 | 64 | 86 | 3.0 | 11.0 | 0.00 | 0.00 | 0.00 | 56 | 994.7 |
| 20260904103605 | 66 | 59 | 2.0 | 6.0 | 0.00 | 0.00 | 0.00 | 53 | 994.8 |
| 20260904102724 | 66 | 61 | 2.0 | 4.0 | 0.00 | 0.00 | 0.00 | 53 | 994.7 |
| 20260904101803 | 65 | 352 | 2.0 | 6.0 | 0.00 | 0.00 | 0.00 | 56 | 994.8 |
| 20260904100924 | 66 | 44 | 2.0 | 4.0 | 0.00 | 0.00 | 0.00 | 53 | 994.9 |
| 20260904100003 | 65 | 115 | 0.0 | 6.0 | 0.00 | 0.00 | 0.00 | 56 | 995.2 |
| 20260904095403 | 63 | 123 | 2.0 | 4.0 | 0.00 | 0.00 | 0.00 | 60 | 995.2 |
| 20260904094504 | 63 | 83 | 2.0 | 6.0 | 0.00 | 0.00 | 0.00 | 59 | 995.2 |
| 20260904093603 | 64 | 76 | 2.0 | 9.0 | 0.00 | 0.00 | 0.00 | 60 | 995.5 |
| 20260904092703 | 64 | 74 | 1.0 | 4.0 | 0.00 | 0.00 | 0.00 | 61 | 995.3 |
| 20260904091824 | 63 | 78 | 2.0 | 7.0 | 0.00 | 0.00 | 0.00 | 60 | 995.6 |
| 20260904090904 | 63 | 76 | 3.0 | 8.0 | 0.00 | 0.00 | 0.00 | 60 | 995.6 |
| 20260904090006 | 62 | 85 | 4.0 | 6.0 | 0.00 | 0.00 | 0.00 | 63 | 995.6 |
| 20260904085406 | 63 | 111 | 2.0 | 4.0 | 0.00 | 0.00 | 0.00 | 61 | 995.7 |
| 20260904084503 | 63 | 72 | 0.0 | 4.0 | 0.00 | 0.00 | 0.00 | 61 | 995.6 |
| 20260904083603 | 61 | 58 | 2.0 | 2.0 | 0.00 | 0.00 | 0.00 | 64 | 995.5 |
| 20260904082703 | 60 | 312 | 0.0 | 4.0 | 0.00 | 0.00 | 0.00 | 68 | 995.9 |
| 20260904081803 | 58 | 308 | 0.0 | 4.0 | 0.00 | 0.00 | 0.00 | 72 | 995.7 |
| 20260904080903 | 57 | 328 | 2.0 | 2.0 | 0.00 | 0.00 | 0.00 | 74 | 995.8 |
| 20260904080003 | 57 | 31 | 1.0 | 2.0 | 0.00 | 0.00 | 0.00 | 73 | 996.0 |
| 20260904075404 | 56 | 73 | 2.0 | 2.0 | 0.00 | 0.00 | 0.00 | 76 | 996.2 |
| 20260904074505 | 55 | 270 | 1.0 | 2.0 | 0.00 | 0.00 | 0.00 | 79 | 996.1 |
| 20260904073603 | 53 | 276 | 1.0 | 4.0 | 0.00 | 0.00 | 0.00 | 82 | 996.2 |
| 20260904072703 | 54 | 264 | 2.0 | 4.0 | 0.00 | 0.00 | 0.00 | 80 | 996.4 |
| 20260904071803 | 53 | 247 | 2.0 | 2.0 | 0.00 | 0.00 | 0.00 | 82 | 996.1 |
| 20260904070926 | 52 | 247 | 1.0 | 2.0 | 0.00 | 0.00 | 0.00 | 82 | 996.3 |
| 20260904070005 | 51 | 247 | 0.0 | 2.0 | 0.00 | 0.00 | 0.00 | 85 | 996.7 |
| 20260904065403 | 51 | 247 | 1.0 | 2.0 | 0.00 | 0.00 | 0.00 | 85 | 996.5 |
| 20260904064505 | 50 | 239 | 0.0 | 4.0 | 0.00 | 0.00 | 0.00 | 88 | 996.7 |
| 20260904063603 | 49 | 247 | 0.0 | 2.0 | 0.00 | 0.00 | 0.00 | 86 | 996.6 |
| 20260904062703 | 50 | 247 | 0.0 | 2.0 | 0.00 | 0.00 | 0.00 | 87 | 996.5 |
| 20260904061804 | 49 | 247 | 0.0 | 4.0 | 0.00 | 0.00 | 0.00 | 89 | 996.4 |
| 20260904060903 | 48 | 247 | 3.0 | 4.0 | 0.00 | 0.00 | 0.00 | 87 | 996.7 |
| 20260904060003 | 49 | 247 | 0.0 | 2.0 | 0.00 | 0.00 | 0.00 | 87 | 996.5 |
| 20260904055405 | 49 | 247 | 0.0 | 2.0 | 0.00 | 0.00 | 0.00 | 86 | 996.7 |
| 20260904054503 | 49 | 247 | 0.0 | 2.0 | 0.00 | 0.00 | 0.00 | 85 | 996.5 |
| 20260904053624 | 47 | 247 | 0.0 | 2.0 | 0.00 | 0.00 | 0.00 | 87 | 996.7 |
| 20260904052705 | 46 | 0 | 0.0 | 0.0 | 0.00 | 0.00 | 0.00 | 87 | 996.9 |
| 20260904051803 | 45 | 0 | 0.0 | 0.0 | 0.00 | 0.00 | 0.00 | 93 | 996.8 |
| 20260904050903 | 43 | 247 | 0.0 | 2.0 | 0.00 | 0.00 | 0.00 | 93 | 997.0 |
| 20260904050004 | 44 | 247 | 0.0 | 2.0 | 0.00 | 0.00 | 0.00 | 93 | 996.9 |
| 20260904045403 | 44 | 247 | 0.0 | 2.0 | 0.00 | 0.00 | 0.00 | 96 | 996.9 |
| 20260904044503 | 42 | 247 | 0.0 | 2.0 | 0.00 | 0.00 | 0.00 | 97 | 996.9 |
| 20260904043605 | 41 | 0 | 0.0 | 0.0 | 0.00 | 0.00 | 0.00 | 99 | 996.7 |
| 20260904042703 | 41 | 247 | 0.0 | 2.0 | 0.00 | 0.00 | 0.00 | 99 | 996.8 |
| 20260904041803 | 41 | 247 | 0.0 | 2.0 | 0.00 | 0.00 | 0.00 | 99 | 996.9 |
| 20260904040924 | 40 | 247 | 0.0 | 2.0 | 0.00 | 0.00 | 0.00 | 99 | 996.8 |
| 20260904040005 | 40 | 0 | 0.0 | 0.0 | 0.00 | 0.00 | 0.00 | 99 | 996.8 |
| 20260904035426 | 40 | 0 | 0.0 | 0.0 | 0.00 | 0.00 | 0.00 | 99 | 997.0 |
| 20260904034505 | 40 | 0 | 0.0 | 0.0 | 0.00 | 0.00 | 0.00 | 99 | 996.9 |
| 20260904033603 | 40 | 0 | 0.0 | 0.0 | 0.00 | 0.00 | 0.00 | 99 | 997.1 |
| 20260904032703 | 40 | 0 | 0.0 | 0.0 | 0.00 | 0.00 | 0.00 | 98 | 997.1 |
| 20260904031803 | 41 | 0 | 0.0 | 0.0 | 0.00 | 0.00 | 0.00 | 98 | 997.2 |
| 20260904030903 | 41 | 0 | 0.0 | 0.0 | 0.00 | 0.00 | 0.00 | 98 | 996.9 |
| 20260904030024 | 41 | 247 | 0.0 | 2.0 | 0.00 | 0.00 | 0.00 | 98 | 997.2 |
| 20260904025405 | 40 | 0 | 0.0 | 0.0 | 0.00 | 0.00 | 0.00 | 97 | 997.0 |
| 20260904024503 | 41 | 0 | 0.0 | 0.0 | 0.00 | 0.00 | 0.00 | 97 | 997.1 |
| 20260904023604 | 42 | 0 | 0.0 | 0.0 | 0.00 | 0.00 | 0.00 | 97 | 997.1 |
| 20260904022724 | 42 | 247 | 0.0 | 2.0 | 0.00 | 0.00 | 0.00 | 96 | 997.0 |
| 20260904021824 | 43 | 0 | 0.0 | 0.0 | 0.00 | 0.00 | 0.00 | 96 | 997.4 |
| 20260904020905 | 42 | 0 | 0.0 | 0.0 | 0.00 | 0.00 | 0.00 | 96 | 997.5 |
| 20260904020003 | 43 | 0 | 0.0 | 0.0 | 0.00 | 0.00 | 0.00 | 97 | 997.4 |
| 20260904015403 | 42 | 0 | 0.0 | 0.0 | 0.00 | 0.00 | 0.00 | 97 | 997.5 |
| 20260904014503 | 42 | 0 | 0.0 | 0.0 | 0.00 | 0.00 | 0.00 | 96 | 997.5 |
| 20260904013605 | 42 | 0 | 0.0 | 0.0 | 0.00 | 0.00 | 0.00 | 96 | 997.7 |
| 20260904012703 | 42 | 0 | 0.0 | 0.0 | 0.00 | 0.00 | 0.00 | 96 | 997.6 |
| 20260904011803 | 42 | 0 | 0.0 | 0.0 | 0.00 | 0.00 | 0.00 | 95 | 997.7 |
| 20260904010903 | 43 | 0 | 0.0 | 0.0 | 0.00 | 0.00 | 0.00 | 95 | 997.8 |
| 20260904010003 | 43 | 247 | 0.0 | 2.0 | 0.00 | 0.00 | 0.00 | 95 | 997.8 |
| 20260904005426 | 43 | 0 | 0.0 | 0.0 | 0.00 | 0.00 | 0.00 | 95 | 997.8 |
| 20260904004503 | 44 | 0 | 0.0 | 0.0 | 0.00 | 0.00 | 0.00 | 95 | 998.0 |
| 20260904003603 | 44 | 247 | 0.0 | 2.0 | 0.00 | 0.00 | 0.00 | 95 | 998.1 |
| 20260904002703 | 45 | 247 | 0.0 | 2.0 | 0.00 | 0.00 | 0.00 | 95 | 998.1 |
| 20260904001803 | 43 | 247 | 0.0 | 2.0 | 0.00 | 0.00 | 0.00 | 92 | 998.3 |
| 20260904000926 | 45 | 247 | 1.0 | 2.0 | 0.00 | 0.00 | 0.00 | 92 | 998.4 |
| 20260904000003 | 46 | 247 | 2.0 | 2.0 | 0.00 | 0.00 | 0.00 | 93 | 998.3 |
| 20260903235404 | 46 | 247 | 2.0 | 2.0 | 0.00 | 0.00 | 0.00 | 92 | 998.4 |
| 20260903234503 | 45 | 247 | 0.0 | 2.0 | 0.00 | 0.00 | 0.00 | 91 | 998.4 |
| 20260903233603 | 46 | 0 | 0.0 | 0.0 | 0.00 | 0.00 | 0.00 | 92 | 998.6 |
| 20260903232706 | 45 | 0 | 0.0 | 0.0 | 0.00 | 0.00 | 0.00 | 92 | 998.4 |
| 20260903231803 | 46 | 0 | 0.0 | 0.0 | 0.00 | 0.00 | 0.00 | 92 | 998.6 |
| 20260903230903 | 45 | 0 | 0.0 | 0.0 | 0.00 | 0.00 | 0.00 | 92 | 998.4 |
| 20260903230003 | 46 | 0 | 0.0 | 0.0 | 0.00 | 0.00 | 0.00 | 92 | 998.6 |